Montrose, CO

5:21 AM MDT on June 26, 2017 (GMT -0600)
Montrose Regional

Weather History for KMTJ - October, 2013

Change the Weather History Date:

Wednesday, October 30, 2013

  Actual Average Record
Temperature  
Mean Temperature 40 °F 44 °F  
Max Temperature 48 °F 59 °F 74 °F (2016)
Min Temperature 31 °F 30 °F 21 °F (1999)
Degree Days  
Heating Degree Days 25 21  
Month to date heating degree days 498 444  
Since 1 July heating degree days 592 571  
Cooling Degree Days 0 0  
Month to date cooling degree days 0 0  
Year to date cooling degree days 891 643  
Moisture  
Dew Point 32 °F    
Average Humidity 75    
Maximum Humidity 100    
Minimum Humidity 49    
Precipitation  
Precipitation 0.21 in 0.03 in 0.21 in (2013)
Month to date precipitation 1.48 1.16  
Year to date precipitation 9.75 9.81  
Sea Level Pressure  
Sea Level Pressure 29.98 in    
Wind  
Wind Speed 4 mph (SE)    
Max Wind Speed 10 mph    
Max Gust Speed 12 mph    
Visibility 8 miles    
Events Rain    
T = Trace of Precipitation, MM = Missing Value Source: NWS Daily Summary

Daily Weather History Graph

Daily Weather History Graph

Search for Another Location

Airport or City:

Trip Planner

Search our weather history database for the weather conditions in past years. The results will help you decide how hot, cold, wet, or windy it might be!

Date:

Astronomy

Oct. 30, 2013 Rise Set
Actual Time 7:36 AM MDT 6:13 PM MDT
Civil Twilight 7:08 AM MDT 6:40 PM MDT
Nautical Twilight 6:37 AM MDT 7:12 PM MDT
Astronomical Twilight 6:06 AM MDT 7:42 PM MDT
Moon 3:30 AM MDT (10/30) 3:58 PM MDT (10/30)
Length of Visible Light 11h 32m
Length of Day
10h 37m
Waning Crescent, 16% of the Moon is Illuminated
Oct 30
Waning Crescent
Nov 3
New
Nov 9
First Quarter
Nov 17
Full
Nov 25
Last Quarter

Hourly Weather History & Observations

Time (MDT) Temp. Windchill Dew Point Humidity Pressure Visibility Wind Dir Wind Speed Gust Speed Precip Events Conditions
12:53 AM 37.9 °F - 33.1 °F 83% 29.89 in 10.0 mi North - - N/A   Partly Cloudy
1:53 AM 37.0 °F - 33.1 °F 86% 29.91 in 10.0 mi Calm Calm - N/A   Clear
2:53 AM 34.0 °F - 32.0 °F 92% 29.92 in 10.0 mi Calm Calm - N/A   Clear
3:53 AM 34.0 °F - 32.0 °F 92% 29.93 in 10.0 mi Calm Calm - N/A   Scattered Clouds
4:53 AM 32.0 °F 25.6 °F 30.9 °F 96% 29.93 in 10.0 mi SE 6.9 mph - N/A   Partly Cloudy
5:53 AM 33.1 °F - 30.9 °F 92% 29.94 in 10.0 mi Calm Calm - N/A   Clear
6:53 AM 32.0 °F 25.6 °F 30.0 °F 92% 29.96 in 10.0 mi SE 6.9 mph - N/A   Mostly Cloudy
7:53 AM 32.0 °F 26.4 °F 30.0 °F 92% 29.97 in 10.0 mi SSE 5.8 mph - N/A   Overcast
8:53 AM 35.1 °F 28.6 °F 30.9 °F 85% 29.98 in 10.0 mi SE 8.1 mph - N/A   Overcast
9:53 AM 37.9 °F 34.4 °F 28.9 °F 70% 29.97 in 10.0 mi ESE 4.6 mph - N/A   Overcast
11:53 AM 46.0 °F - 28.9 °F 51% 30.00 in - North - - N/A   Unknown
12:53 PM - - - N/A% 29.98 in - North - - N/A   Overcast
1:53 PM - - - N/A% 29.97 in - North - - N/A   Overcast
2:53 PM - - - N/A% 29.96 in 10.0 mi NE 3.5 mph - N/A   Overcast
3:26 PM 39.0 °F 34.0 °F 32.0 °F 76% 29.97 in 2.5 mi NNW 6.9 mph - 0.04 in Rain Heavy Rain
3:29 PM 37.9 °F 35.5 °F 32.0 °F 79% 29.98 in 1.5 mi North 3.5 mph - 0.06 in Rain Heavy Rain
3:37 PM 37.0 °F 32.4 °F 32.0 °F 82% 29.98 in 2.0 mi SW 5.8 mph - 0.09 in Rain Heavy Rain
3:45 PM 37.0 °F 33.3 °F 33.1 °F 86% 29.99 in 5.0 mi South 4.6 mph - 0.09 in Rain Light Rain
3:53 PM 37.0 °F 34.5 °F 33.1 °F 86% 29.99 in 2.0 mi WNW 3.5 mph - 0.13 in Rain Heavy Rain
3:58 PM 35.1 °F - 33.1 °F 92% 29.99 in 1.0 mi Calm Calm - 0.04 in Rain Heavy Rain
4:04 PM 35.1 °F 30.1 °F 33.1 °F 92% 29.99 in 1.8 mi ESE 5.8 mph - 0.06 in Rain Light Rain
4:06 PM 34.0 °F 28.8 °F 33.1 °F 96% 29.99 in 3.0 mi ESE 5.8 mph - 0.06 in Rain Light Rain
4:29 PM 36.0 °F 32.1 °F 35.1 °F 97% 29.99 in 10.0 mi SE 4.6 mph - 0.06 in   Overcast
4:53 PM 37.0 °F 31.6 °F 35.1 °F 93% 29.99 in 10.0 mi SE 6.9 mph - 0.06 in   Scattered Clouds
5:53 PM 36.0 °F 31.1 °F 35.1 °F 97% 30.00 in 10.0 mi ESE 5.8 mph - N/A   Mostly Cloudy
6:53 PM 37.0 °F 32.4 °F 35.1 °F 93% 30.01 in 10.0 mi South 5.8 mph - 0.00 in Rain Light Rain
7:53 PM 36.0 °F 31.1 °F 34.0 °F 93% 30.02 in 10.0 mi South 5.8 mph - 0.00 in   Mostly Cloudy
8:53 PM 34.0 °F 28.8 °F 33.1 °F 96% 30.02 in 10.0 mi ESE 5.8 mph - N/A   Partly Cloudy
9:53 PM 34.0 °F 28.8 °F 33.1 °F 96% 30.03 in 10.0 mi ESE 5.8 mph - N/A   Overcast
10:53 PM 34.0 °F - 33.1 °F 96% 30.04 in 10.0 mi Calm Calm - N/A   Overcast
11:53 PM 34.0 °F - 32.0 °F 92% 30.00 in 10.0 mi Calm Calm - 0.00 in   Overcast